Regional Weather Roundup
Issued by NWS Northern Indiana

Home | Current Version | Previous Version | Graphics & Text | Print | Product List | Glossary On
Versions: 1 2 3 4 5 6 7 8 9 10 11 12 13 14 15 16 17 18 19 20 21 22 23 24 25 26 27 28 29 30 31 32 33 34 35 36 37 38 39 40 41 42 43 44 45 46 47 48 49 50
000
ASUS43 KIWX 280510
RWRIWX

KIWX WEATHER ROUNDUP
NATIONAL WEATHER SERVICE NORTHERN INDIANA
100 AM EDT THU AUG 28 2014

NOTE: "FAIR" INDICATES FEW OR NO CLOUDS BELOW 12,000 FEET WITH NO
SIGNIFICANT WEATHER AND/OR OBSTRUCTIONS TO VISIBILITY.

* THESE STATIONS ARE NOT UNDER NWS QUALITY CONTROL. THEY ALSO MAY NOT
  REPORT WEATHER SUCH AS PRECIPITATION OR FOG.

INZ001>027-280600-
NORTHERN INDIANA

CITY           SKY/WX    TMP DP  RH WIND       PRES   REMARKS
GARY*          CLEAR     70  62  75 E5        30.13R
VALPARAISO     CLEAR     59  57  93 CALM      30.12F
MICHIGAN CITY* CLEAR     61  61 100 CALM      30.12F
LAPORTE*       PTCLDY    62  57  83 NE3       30.13F
KNOX*          CLEAR     61  58  89 NE3       30.11F
SOUTH BEND     CLEAR     64  57  78 NE8       30.13S
GOSHEN         CLEAR     64  60  87 NE6       30.12S
MONTICELLO*    CLEAR     64  61  91 NE3       30.11S
LOGANSPORT*    CLEAR     63  59  88 N5        30.11F
ROCHESTER*     CLEAR     64  61  88 N3        30.12S
WARSAW*        CLEAR     63  61  94 CALM      30.12S
ANGOLA*        CLEAR     63  61  94 N3        30.13S
FORT WAYNE     PTCLDY    65  60  84 NE7       30.11S
HUNTINGTON*    CLEAR     64  61  91 N3        30.11S
PERU/GRISSOM   CLEAR     65  65 100 N2        30.11R
MARION*        CLEAR     65  60  84 NE5       30.11S

$$
INZ028>050-280600-
CENTRAL INDIANA

CITY           SKY/WX    TMP DP  RH WIND       PRES   REMARKS
LAFAYETTE      CLEAR     66  60  81 NE8       30.10S
KOKOMO*        CLEAR     64  61  88 NE5       30.11R
MUNCIE*        CLEAR     67  61  81 E7        30.09S
INDIANAPOLIS   PTCLDY    73  63  70 NE7       30.07S

$$
MIZ043>046-050>051-056>058-064>065-071>073-077>080-280600-
SOUTHWEST LOWER MICHIGAN

CITY           SKY/WX    TMP DP  RH WIND       PRES   REMARKS
BATTLE CREEK   CLEAR     63  56  78 NE8       30.14S
BENTON HARBOR  CLEAR     60  56  86 NE3       30.13F
COLDWATER*     PTCLDY    64  61  91 CALM      30.13S
HILLSDALE*     CLEAR     58  58 100 CALM      30.13S
HOLLAND        CLEAR     63  54  72 NE3       30.15S
GRAND RAPIDS   CLEAR     60  58  92 NE5       30.15S
KALAMAZOO      CLEAR     63  56  78 N5        30.14S
STURGIS*       PTCLDY    63  61  94 N6        30.12F
THREE RIVERS*  FAIR      63  59  88 CALM      30.13S

$$
OHZ001>008-015>018-024>025-280600-
NORTHWEST OHIO

CITY           SKY/WX    TMP DP  RH WIND       PRES   REMARKS
WAUSEON*       FAIR      59  57  94 CALM      30.11S
DEFIANCE       PTCLDY    65  60  84 CALM      30.11S
FINDLAY        PTCLDY    69  63  81 NE6       30.09S
TOLEDO EXPRESS PTCLDY    64  58  80 CALM      30.10S
TOLEDO METCALF MOCLDY    68  62  81 NE5       30.11S
LIMA           CLEAR     67  64  90 CALM      30.10R

$$
&&



USA.gov is the U.S. government's official web portal to all federal, state and local government web resources and services.